Home   Weather   Toamasina   Past weeks
Flag for Madagascar

Past Weather in Toamasina, Madagascar — Yesterday and Last 2 Weeks

Now
84 °F

Passing clouds.


Feels Like: 88 °F
Forecast: 80 / 72 °F
Wind: 12 mph from East

Location: Tamatave

Current Time: Oct 15, 2019 at 2:43:39 pm

Latest Report: Oct 15, 2019 at 2:00 pm


Visibility: N/A

Pressure: 29.95 "Hg

Humidity: 62%

Dew Point: 70 °F

Location of ToamasinaLocation

Past Weather in Toamasina — Graph

°F

Toamasina Temperature Yesterday

Maximum temperature yesterday: 82 °F (at 8:00 am)
Minimum temperature yesterday: 70 °F (at 3:00 am)
Average temperature yesterday: 77 °F

High & Low Weather Summary for the Past Weeks

 TemperatureHumidityPressure
High84 °F (Oct 5, 10:00 am)100% (Oct 1, 3:00 am)30.15 "Hg (Oct 1, 3:00 am)
Low66 °F (Oct 2, 5:00 am)58% (Oct 5, 10:00 am)29.89 "Hg (Sep 30, 3:00 pm)
Average76 °F82%30.06 "Hg
* Reported Sep 30 1:00 pm — Oct 15 1:00 pm, Toamasina. Weather by CustomWeather, © 2019

Note: Actual official high and low records may vary slightly from our data, if they occured in-between our weather recording intervals... More about our weather records

Advertising

Toamasina Weather History for the Previous 24 Hours

Scroll right to see more
 ConditionsComfort  
Time TempWeatherWind HumidityBarometerVisibility
1:00 pm
Tue, Oct 15
84 °FPassing clouds.14 mph58%29.95 "HgN/A
12:00 pm84 °FScattered clouds.13 mph58%29.98 "HgN/A
11:00 am84 °FScattered clouds.9 mph62%29.98 "HgN/A
10:00 am82 °FScattered clouds.8 mph62%29.98 "HgN/A
9:00 am82 °FPassing clouds.7 mph66%30.01 "HgN/A
8:00 am81 °FPassing clouds.6 mph66%30.01 "HgN/A
7:00 am77 °FPassing clouds.5 mph79%29.98 "HgN/A
6:00 am70 °FScattered clouds.1 mph94%29.98 "HgN/A
5:00 am72 °FPassing clouds.No wind88%29.98 "HgN/A
4:00 am72 °FPassing clouds.No wind88%29.95 "HgN/A
3:00 am72 °FPassing clouds.No wind88%29.95 "HgN/A
2:00 am72 °FScattered showers. Partly cloudy.No wind88%29.95 "HgN/A
1:00 am72 °FScattered showers. Partly cloudy.No wind88%29.98 "HgN/A
12:00 am72 °FScattered showers. Partly cloudy.No wind88%29.98 "HgN/A
11:00 pm
Mon, Oct 14
73 °FScattered showers. Partly cloudy.No wind83%30.01 "HgN/A
10:00 pm73 °FScattered showers. Partly cloudy.No wind83%30.01 "HgN/A
9:00 pm73 °FScattered showers. Partly cloudy.1 mph83%30.04 "HgN/A
8:00 pm73 °FPassing clouds.5 mph83%30.01 "HgN/A
7:00 pm77 °FPassing clouds.6 mph74%29.98 "HgN/A
6:00 pm77 °FPassing clouds.5 mph69%29.98 "HgN/A
5:00 pm79 °FPassing clouds.7 mph70%29.95 "HgN/A
4:00 pm81 °FPassing clouds.8 mph66%29.95 "HgN/A
3:00 pm82 °FPassing clouds.9 mph58%29.95 "HgN/A
2:00 pm82 °FPassing clouds.9 mph66%29.95 "HgN/A
Weather by CustomWeather, © 2019

See weather overview